Tracking 35331 objects as of 16-Sep-2026
HD Live streaming from Space Station
objects crossing your sky now

COSMOS 885 DEB


COSMOS 885 DEB is no longer on orbit


NORAD ID: 9999
Int'l Code: 1976-124T
Launch date: December 17, 1976
Source: Commonwealth of Independent States (former USSR) (CIS)
Launch site: PLESETSK MISSILE AND SPACE COMPLEX (PKMTR)
Decay date: 1977-10-17

Note: This is SATELLITE DEBRIS
Your satellite tracking list
Your tracking list is empty




NASA's NSSDC Master Catalog

Two Line Element Set (TLE):
1 09999U 76124  T 77285.22270002  .01163867 +00000-0 +00000-0 0  9992
2 09999 065.8382 000.2379 0012502 142.5182 217.6815 15.92089284046013
Source of the keplerian elements: AFSPC